FW9064 Weather Reports


Display with metric or nautical units.
time (UTC)temp
F
wind
direction
speed
MPH
gust
MPH
rain 1hr
in
rain 24hr
in
rain mn
in
humidity
%
barometer
mb
20260505075215 50 110 0.0 0.0 0.00 0.00 0.00 98 1014.4
20260505074712 50 108 0.0 0.0 0.00 0.00 0.00 98 1014.4
20260505074209 50 108 0.0 0.0 0.00 0.00 0.00 98 1014.6
20260505073707 50 110 0.0 0.0 0.00 0.00 0.00 98 1014.7
20260505073204 50 111 0.0 0.0 0.00 0.00 0.00 98 1014.5
20260505072700 50 110 0.0 0.0 0.00 0.00 0.00 98 1014.3
20260505072157 50 108 0.0 0.0 0.00 0.00 0.00 97 1014.5
20260505071652 50 111 0.0 0.0 0.00 0.00 0.00 97 1014.2
20260505071150 51 110 0.0 0.0 0.00 0.00 0.00 97 1014.4
20260505070647 51 110 0.0 0.0 0.00 0.00 0.00 97 1014.5
20260505070143 51 109 0.0 0.0 0.00 0.00 0.00 97 1014.2
20260505065639 51 111 0.0 0.0 0.00 0.00 0.00 97 1014.5
20260505065136 50 114 0.0 0.0 0.00 0.00 0.00 97 1014.4
20260505064633 50 110 0.0 0.0 0.00 0.00 0.00 97 1014.5
20260505064131 50 112 0.0 0.0 0.00 0.00 0.00 97 1014.4
20260505063628 51 110 0.0 0.0 0.00 0.00 0.00 96 1014.4
20260505063124 51 110 0.0 0.0 0.00 0.00 0.00 96 1014.3
20260505062621 51 112 0.0 0.0 0.00 0.00 0.00 96 1014.6
20260505062118 51 110 0.0 0.0 0.00 0.00 0.00 96 1014.6
20260505061615 51 109 0.0 0.0 0.00 0.00 0.00 96 1014.6
20260505061113 51 105 0.0 0.0 0.00 0.00 0.00 96 1014.6
20260505060611 51 109 0.0 0.0 0.00 0.00 0.00 95 1014.7
20260505060107 51 113 0.0 0.0 0.00 0.00 0.00 95 1014.6
20260505055602 51 114 0.0 0.0 0.00 0.00 0.00 95 1014.6
20260505055059 52 112 0.0 0.0 0.00 0.00 0.00 95 1014.6
20260505054556 52 115 0.0 0.0 0.00 0.00 0.00 95 1014.9
20260505054055 52 110 0.0 0.0 0.00 0.00 0.00 94 1014.8
20260505053551 52 112 0.0 0.0 0.00 0.00 0.00 94 1014.8
20260505053048 52 109 0.0 0.0 0.00 0.00 0.00 94 1014.7
20260505052545 52 109 0.0 0.0 0.00 0.00 0.00 94 1014.6
20260505052043 53 113 0.0 0.0 0.00 0.00 0.00 94 1014.6
20260505051539 53 113 0.0 0.0 0.00 0.00 0.00 94 1014.4
20260505051038 53 110 0.0 0.0 0.00 0.00 0.00 94 1014.4
20260505050535 53 111 0.0 0.0 0.00 0.00 0.00 93 1014.2
20260505041503 54 111 0.0 0.0 0.00 0.00 0.00 91 1014.4
20260505041001 54 112 0.0 0.0 0.00 0.00 0.00 91 1014.5
20260505040458 54 112 0.0 0.0 0.00 0.00 0.00 91 1014.2
20260505035954 54 111 0.0 0.0 0.00 0.00 0.00 91 1014.2
20260505035450 54 111 0.0 0.0 0.00 0.00 0.00 90 1014.5
20260505034948 54 111 0.0 0.0 0.00 0.00 0.00 90 1014.6
20260505034444 55 113 0.0 0.0 0.00 0.00 0.00 89 1014.3
20260505033941 55 112 0.0 0.0 0.00 0.00 0.00 89 1014.5
20260505033438 55 112 0.0 0.0 0.00 0.00 0.00 89 1014.6
20260505032936 55 112 0.0 0.0 0.00 0.00 0.00 88 1014.6
20260505032433 55 113 0.0 0.0 0.00 0.00 0.00 88 1014.5
20260505031929 55 114 0.0 0.0 0.00 0.00 0.00 87 1014.3
20260505031427 56 112 0.0 0.0 0.00 0.00 0.00 86 1014.4
20260505030923 56 111 0.0 0.0 0.00 0.00 0.00 86 1014.4
20260505030419 56 111 0.0 0.0 0.00 0.00 0.00 86 1014.3
20260505025915 56 109 0.0 0.0 0.00 0.00 0.00 85 1014.5
20260505025412 57 111 0.0 0.0 0.00 0.00 0.00 85 1014.4
20260505024911 57 112 0.0 0.0 0.00 0.00 0.00 85 1014.4
20260505024408 57 111 0.0 0.0 0.00 0.00 0.00 84 1014.5
20260505023905 57 111 0.0 0.0 0.00 0.00 0.00 84 1014.3
20260505023402 57 112 0.0 0.0 0.00 0.00 0.00 83 1014.3
20260505022859 57 111 0.0 0.0 0.00 0.00 0.00 83 1014.4
20260505022356 57 112 0.0 0.0 0.00 0.00 0.00 82 1014.2
20260505021854 58 112 0.0 0.0 0.00 0.00 0.00 81 1014.3
20260505021350 58 113 0.0 0.0 0.00 0.00 0.00 81 1014.2
20260505020846 59 112 0.0 0.0 0.00 0.00 0.00 80 1013.9
20260505020341 59 112 0.0 0.0 0.00 0.00 0.00 79 1013.9
20260505015839 59 123 0.0 0.0 0.00 0.00 0.00 79 1014.2
20260505015336 59 113 0.0 0.0 0.00 0.00 0.00 78 1013.9
20260505014833 60 113 0.0 0.0 0.00 0.00 0.00 78 1013.9
20260505014330 60 113 0.0 0.0 0.00 0.00 0.00 77 1014.1
20260505013826 60 114 0.0 0.0 0.00 0.00 0.00 77 1013.8
20260505013324 60 113 0.0 0.0 0.00 0.00 0.00 76 1014.0
20260505012822 61 113 0.0 0.0 0.00 0.00 0.00 75 1013.8
20260505012319 61 115 0.0 0.0 0.00 0.00 0.00 74 1013.8
20260505011815 62 113 0.0 0.0 0.00 0.00 0.00 74 1013.6
20260505011312 62 113 0.0 0.0 0.00 0.00 0.00 73 1013.6
20260505010808 63 114 0.0 0.0 0.00 0.00 0.00 71 1013.6
20260505010304 63 114 0.0 0.0 0.00 0.00 0.00 70 1013.7
20260505005801 64 114 0.0 0.0 0.00 0.00 0.00 67 1013.7
20260505005258 65 113 0.0 0.0 0.00 0.00 0.00 65 1013.5
20260505004755 65 113 0.0 0.0 0.00 0.00 0.00 64 1013.6
20260505004251 66 113 0.0 0.0 0.00 0.00 0.00 63 1013.4
20260505003749 67 113 0.0 0.0 0.00 0.00 0.00 62 1013.5
20260505003246 67 112 0.0 0.0 0.00 0.00 0.00 60 1013.6
20260505002742 68 113 0.0 0.0 0.00 0.00 0.00 60 1013.5
20260505002240 69 112 0.0 0.0 0.00 0.00 0.00 62 1013.4
20260505001737 69 112 0.0 0.0 0.00 0.00 0.00 60 1013.4
20260505001235 70 113 0.0 0.0 0.00 0.00 0.00 57 1013.4
20260505000731 71 112 0.0 0.0 0.00 0.00 0.00 56 1013.4
20260505000229 72 113 0.0 0.0 0.00 0.00 0.00 53 1013.4
20260504235725 73 113 0.0 0.0 0.00 0.00 0.00 49 1013.6
20260504235221 73 112 0.0 0.0 0.00 0.00 0.00 47 1013.4
20260504234719 74 114 0.0 0.0 0.00 0.00 0.00 46 1013.7
20260504234216 74 114 0.0 0.0 0.00 0.00 0.00 44 1013.6
20260504233712 74 115 1.0 1.0 0.00 0.00 0.00 43 1013.5
20260504233208 75 113 0.0 0.0 0.00 0.00 0.00 44 1013.6
20260504232706 75 113 0.0 0.0 0.00 0.00 0.00 42 1013.5
20260504232203 75 123 1.0 2.0 0.00 0.00 0.00 43 1013.4
20260504231659 75 141 1.0 2.0 0.00 0.00 0.00 43 1013.7
20260504231155 75 112 0.0 0.0 0.00 0.00 0.00 47 1013.6
20260504230652 76 111 1.0 1.0 0.00 0.00 0.00 43 1013.6
20260504230151 76 131 0.0 0.0 0.00 0.00 0.00 43 1013.7
20260504225649 76 117 0.0 0.0 0.00 0.00 0.00 42 1013.8
20260504225144 76 123 1.0 2.0 0.00 0.00 0.00 41 1013.6
20260504224642 77 121 0.0 1.0 0.00 0.00 0.00 42 1013.8
20260504224138 77 105 0.0 0.0 0.00 0.00 0.00 41 1013.7
20260504223636 77 112 0.0 1.0 0.00 0.00 0.00 39 1013.8
20260504223131 77 229 2.0 3.0 0.00 0.00 0.00 40 1013.9
20260504222628 78 162 1.0 1.0 0.00 0.00 0.00 42 1013.9
20260504222125 78 133 3.0 3.0 0.00 0.00 0.00 39 1013.9
20260504221623 78 113 1.0 1.0 0.00 0.00 0.00 39 1014.0
20260504221120 78 107 0.0 1.0 0.00 0.00 0.00 38 1014.0
20260504220616 78 155 4.0 6.0 0.00 0.00 0.00 37 1013.9
20260504220114 78 124 1.0 1.0 0.00 0.00 0.00 38 1014.0
20260504215609 79 130 2.0 3.0 0.00 0.00 0.00 39 1014.0
20260504215107 79 95 0.0 1.0 0.00 0.00 0.00 40 1013.9
20260504214603 79 187 4.0 5.0 0.00 0.00 0.00 38 1014.1
20260504214059 79 114 0.0 0.0 0.00 0.00 0.00 41 1014.0
20260504213556 79 105 1.0 1.0 0.00 0.00 0.00 39 1013.9
20260504213053 78 102 1.0 1.0 0.00 0.00 0.00 39 1014.0
20260504212549 78 114 0.0 0.0 0.00 0.00 0.00 42 1014.1
20260504212046 78 141 0.0 0.0 0.00 0.00 0.00 40 1014.2
20260504211543 78 94 0.0 1.0 0.00 0.00 0.00 39 1014.2
20260504211040 77 159 2.0 5.0 0.00 0.00 0.00 39 1013.9
20260504210537 78 133 1.0 1.0 0.00 0.00 0.00 41 1014.2
20260504210034 78 157 2.0 2.0 0.00 0.00 0.00 39 1014.3
20260504205532 78 131 0.0 1.0 0.00 0.00 0.00 40 1014.2
20260504205029 78 112 0.0 1.0 0.00 0.00 0.00 42 1014.4
20260504204527 78 103 1.0 2.0 0.00 0.00 0.00 43 1014.1
20260504204026 79 153 2.0 2.0 0.00 0.00 0.00 42 1014.2
20260504203524 79 149 1.0 2.0 0.00 0.00 0.00 45 1014.1
20260504203021 78 116 2.0 2.0 0.00 0.00 0.00 42 1014.3
20260504202516 80 116 1.0 2.0 0.00 0.00 0.00 42 1014.2
20260504202013 79 150 1.0 1.0 0.00 0.00 0.00 44 1014.2
20260504201510 79 142 2.0 2.0 0.00 0.00 0.00 42 1014.2
20260504201008 79 187 1.0 1.0 0.00 0.00 0.00 42 1014.6
20260504200504 79 140 1.0 2.0 0.00 0.00 0.00 40 1014.6
20260504200001 79 126 1.0 2.0 0.00 0.00 0.00 40 1014.9
20260504195457 78 199 5.0 6.0 0.00 0.00 0.00 40 1014.6
20260504194954 79 118 2.0 2.0 0.00 0.00 0.00 38 1014.8
20260504194450 79 120 1.0 1.0 0.00 0.00 0.00 41 1015.2
20260504193946 78 136 1.0 1.0 0.00 0.00 0.00 43 1014.9
20260504193443 79 111 1.0 2.0 0.00 0.00 0.00 41 1015.0
20260504192942 79 142 0.0 1.0 0.00 0.00 0.00 39 1015.3
20260504192438 79 168 2.0 2.0 0.00 0.00 0.00 40 1015.3
20260504191938 80 94 1.0 2.0 0.00 0.00 0.00 37 1015.2
20260504191435 82 207 2.0 2.0 0.00 0.00 0.00 39 1015.0
20260504190930 82 115 1.0 1.0 0.00 0.00 0.00 38 1015.2
20260504190426 81 112 1.0 1.0 0.00 0.00 0.00 39 1015.4
20260504185923 81 115 1.0 1.0 0.00 0.00 0.00 38 1015.9
20260504185420 81 120 1.0 1.0 0.00 0.00 0.00 43 1015.8
20260504184916 80 117 0.0 1.0 0.00 0.00 0.00 41 1015.9
20260504184412 81 136 0.0 0.0 0.00 0.00 0.00 43 1015.9
20260504183908 80 174 3.0 3.0 0.00 0.00 0.00 40 1015.9
20260504183405 81 120 1.0 1.0 0.00 0.00 0.00 44 1016.0
20260504182903 81 99 1.0 1.0 0.00 0.00 0.00 44 1015.8
20260504182400 80 103 0.0 0.0 0.00 0.00 0.00 39 1016.3
20260504181856 80 90 0.0 0.0 0.00 0.00 0.00 39 1016.2
20260504181354 80 99 0.0 0.0 0.00 0.00 0.00 40 1016.0
20260504180853 80 188 2.0 3.0 0.00 0.00 0.00 41 1016.3
20260504180351 80 150 0.0 1.0 0.00 0.00 0.00 40 1016.4
20260504175849 79 120 1.0 2.0 0.00 0.00 0.00 40 1016.5
20260504175345 79 111 0.0 1.0 0.00 0.00 0.00 43 1016.6
20260504174844 80 107 0.0 1.0 0.00 0.00 0.00 43 1016.5
20260504174341 79 187 1.0 2.0 0.00 0.00 0.00 44 1016.6
20260504173838 79 109 0.0 0.0 0.00 0.00 0.00 44 1016.5
20260504173334 79 129 2.0 2.0 0.00 0.00 0.00 43 1016.6
20260504172831 79 132 1.0 2.0 0.00 0.00 0.00 45 1016.5
20260504172328 79 115 0.0 0.0 0.00 0.00 0.00 46 1016.8
20260504171824 78 103 0.0 0.0 0.00 0.00 0.00 44 1016.6
20260504171321 78 178 1.0 2.0 0.00 0.00 0.00 47 1016.9
20260504170819 78 124 0.0 1.0 0.00 0.00 0.00 44 1017.1
20260504170315 78 105 1.0 2.0 0.00 0.00 0.00 42 1017.1
20260504160233 76 114 0.0 0.0 0.00 0.00 0.00 47 1017.9
20260504150659 71 103 1.0 1.0 0.00 0.00 0.00 58 1018.1
20260504150156 70 96 0.0 1.0 0.00 0.00 0.00 60 1018.1
20260504141124 66 97 0.0 0.0 0.00 0.00 0.00 65 1018.4
20260504140621 65 138 1.0 1.0 0.00 0.00 0.00 64 1018.4
20260504140117 65 108 0.0 0.0 0.00 0.00 0.00 66 1018.4
20260504130545 57 108 0.0 0.0 0.00 0.00 0.00 88 1018.5
20260504110433 41 110 0.0 0.0 0.00 0.00 0.00 99 1018.0
20260504100349 42 109 0.0 0.0 0.00 0.00 0.00 99 1017.7
20260504081742 43 113 0.0 0.0 0.00 0.00 0.00 99 1017.6
20260504081239 43 110 0.0 0.0 0.00 0.00 0.00 99 1017.6
20260504080736 43 110 0.0 0.0 0.00 0.00 0.00 99 1017.8
20260504080232 43 110 0.0 0.0 0.00 0.00 0.00 99 1018.0